Weather Roundup
Issued by NWS

Home | Current Version | Previous Version | Graphics & Text | Print | Product List | Glossary On
Versions: 1 2 3 4 5 6 7 8 9 10 11 12 13 14 15 16 17 18 19 20 21 22 23 24 25 26 27 28 29 30 31 32 33 34 35 36 37 38 39 40 41 42 43 44 45 46 47 48 49 50
000
NZUS93 KARX 210810
HRRWXR

CURRENT HOURLY OBSERVATIONS ACROSS
MUCH OF THE UPPER MISSISSIPPI VALLEY
NATIONAL WEATHER SERVICE LA CROSSE WI
200 AM CST FRI NOV 21 2014


...SOUTHEAST MINNESOTA...


CITY           SKY/WX    TMP DP  RH WIND       PRES   REMARKS
ROCHESTER      PTCLDY    -2  -6  83 S6        30.27R WCI -14
ROCHESTER/MAYO FAIR       4  -1  79 CALM      30.28R
WINONA         MOCLDY     5   1  85 CALM      30.34R
AUSTIN         CLEAR     -2  -6  84 CALM      30.27S
ALBERT LEA       N/A      3   1  92 S2        30.25S
DODGE CENTER   PTCLDY     1  -2  85 S5        30.25R WCI  -8
PRESTON        PTCLDY     1  -2  88 SW7       30.28S WCI -12
OWATONNA       PTCLDY     1  -2  85 SE6       30.26S WCI -10
FARIBAULT      PTCLDY     1  -2  85 S3        30.27S
$$

...ELSEWHERE IN MINNESOTA...


CITY           SKY/WX    TMP DP  RH WIND       PRES   REMARKS
MINNEAPOLIS    MOCLDY     6   2  83 CALM      30.27S
INTNL FALLS    MOCLDY     2  -3  80 SE5       30.07F WCI  -8
DULUTH         MOCLDY     1  -5  75 SW7       30.15R WCI -12
RED WING         N/A     -2  -8  78 CALM      30.29R
REDWOOD FALLS  CLEAR      2  -2  83 SE8       30.21S WCI -12
MANKATO        PTCLDY     3  -2  78 SE7       30.25S WCI  -9
WORTHINGTON    PTCLDY    10   9  92 S10       30.17F WCI  -3
FAIRMONT       PTCLDY     0  -4  85 S7        30.22F WCI -13
$$

...SOUTHWEST WISCONSIN...


CITY           SKY/WX    TMP DP  RH WIND       PRES   REMARKS
LA CROSSE      PTCLDY     5   0  79 SE6       30.34R WCI  -6
PRAIRIE DU CHI PTCLDY     3  -2  81 CALM      30.36R
BOSCOBEL       PTCLDY     2  -3  80 CALM      30.36R HAZE
LONE ROCK      MOCLDY     2  -5  72 CALM      30.35R
PLATTEVILLE    PTCLDY     8   4  84 CALM      30.34R
FORT MC COY    PTCLDY    -6 -10  83 CALM      30.33R
CAMP DOUGLAS   PTCLDY    -2  -4  91 CALM      30.32R
VIROQUA        FAIR       6   2  84 CALM      30.28R
WIS DELLS      FAIR       3  -3  78 CALM      30.31S
$$

...ELSEWHERE IN WISCONSIN...


CITY           SKY/WX    TMP DP  RH WIND       PRES   REMARKS
MILWAUKEE      CLEAR     13  -1  54 NW9       30.33R WCI   1
MADISON        PTCLDY     4  -2  76 CALM      30.33R
GREEN BAY      CLEAR      7   0  73 W10       30.30R WCI  -8
EAU CLAIRE     PTCLDY     1  -4  79 SW3       30.29R
BLACK RVR FLS  FAIR     -10 -16  76 CALM      30.32R
MEDFORD        CLEAR     -6  -9  84 CALM      30.23R
WAUSAU         PTCLDY     0  -5  79 CALM      30.25R
WIS RAPIDS     CLEAR     -3  -8  79 CALM      30.31R
MARSHFIELD     CLEAR     -1  -7  75 CALM      30.26R
RICE LAKE      PTCLDY    -6 -11  80 CALM      30.27R
$$

...NORTHEAST IOWA...


CITY           SKY/WX    TMP DP  RH WIND       PRES   REMARKS
DECORAH        PTCLDY     5   0  78 CALM      30.29S
MASON CITY     MOCLDY     0  -2  91 S5        30.29S WCI -10
CHARLES CITY   PTCLDY     3  -2  78 SE3       30.30S
OELWEIN        PTCLDY     0  -4  85 E5        30.32S WCI -10
$$

...ELSEWHERE IN IOWA...


CITY           SKY/WX    TMP DP  RH WIND       PRES   REMARKS
DES MOINES     PTCLDY    14   8  77 S6        30.32R WCI   5
IOWA CITY      PTCLDY    10   6  84 CALM      30.37F
FORT DODGE     PTCLDY     7   3  85 CALM      30.28S
$$

...NORTHERN ILLINOIS...


CITY           SKY/WX    TMP DP  RH WIND       PRES   REMARKS
CHICAGO-OHARE  CLEAR     13   3  64 NW7       30.35R WCI   3
CHICAGO-MIDWAY CLEAR     15   4  61 W6        30.37R WCI   6
MOLINE         PTCLDY     9   5  84 CALM      30.38R
ROCKFORD       PTCLDY    10   3  73 CALM      30.38R
PEORIA         CLEAR     17   7  64 CALM      30.39R
$$

NOTE: "FAIR" INDICATES FEW OR NO CLOUDS BELOW 12,000 FEET WITH NO
SIGNIFICANT WEATHER AND/OR OBSTRUCTIONS TO VISIBILITY. WIND
SPEEDS ARE IN MILES-PER-HOUR.



USA.gov is the U.S. government's official web portal to all federal, state and local government web resources and services.